Location: Terra Rouge Observatory
(46.0000°N, 62.7500°W)
Time: 04:47:47
(UTC-03:00)

Amateur Radio Satellites - All Passes

Search period start: 01 August 2015 04:17
Search period end: 02 August 2015 04:17
Location: Terra Rouge Observatory, 46.0000°N, 62.7500°W

Satellite Date Start Highest point End Downlink Frequencies (MHz)
Time Altitude Azimuth
Gurwin Techsat 1B 01 Aug 04:25:30 04:30:38 48° 291° (WNW) 04:35:42 435.225
CUSAT 1 01 Aug 04:36:13 04:38:48 32° 97° (E) 04:41:12 437.405
Cosmos 2504 01 Aug 04:39:41 04:46:25 40° 290° (WNW) 04:53:35 435.465 / 435.565
ITAMSAT 1 01 Aug 04:49:21 04:54:01 34° 294° (WNW) 04:58:37 435.822/435.867
ISS 01 Aug 04:56:24 04:58:39 17° 224° (SW) 05:00:51 145.825
MOZHAYETS 4 01 Aug 04:59:02 05:03:39 72° 258° (WSW) 05:08:20
HORYU 2 01 Aug 05:05:11 05:09:42 64° 102° (ESE) 05:14:10 437.375
AO-7 01 Aug 05:07:56 05:16:11 60° 103° (ESE) 05:24:22 29.400- 29.500
JAS-2 01 Aug 05:12:11 05:19:53 64° 290° (WNW) 05:27:34 435.910
CUBESAT XI-V 01 Aug 05:17:00 05:20:14 19° 63° (ENE) 05:23:36 437.345
GONETS M04 01 Aug 05:21:29 05:27:54 25° 80° (E) 05:34:36
RS-15 01 Aug 05:23:05 05:34:13 49° 36° (NE) 05:45:52 29.354- 29.394
STRAND 1 01 Aug 05:42:35 05:45:09 14° 58° (ENE) 05:47:56 437.568
DANDE 01 Aug 05:57:20 05:59:58 24° 285° (WNW) 06:02:17 436.750
CUTE-I 01 Aug 06:16:16 06:19:02 15° 87° (E) 06:22:03 437.470
PRISM 01 Aug 06:27:11 06:30:26 23° 66° (ENE) 06:33:46 437.425
BEESAT 3 01 Aug 06:31:37 06:32:09 10° 25° (NNE) 06:32:47 437.485
HORYU 2 01 Aug 06:43:00 06:45:53 16° 299° (WNW) 06:48:36 437.375
CUBESAT XI-V 01 Aug 06:52:43 06:57:19 55° 260° (W) 07:01:56 437.345
Cubesat XI-IV 01 Aug 06:58:49 07:03:39 35° 95° (E) 07:08:30 437.490
JAS-2 01 Aug 06:58:56 07:03:40 17° 309° (NW) 07:08:07 435.910
AO-7 01 Aug 07:01:12 07:08:41 37° 303° (WNW) 07:16:00 29.400- 29.500
Cosmos 2499 01 Aug 07:08:44 07:14:26 25° 81° (E) 07:20:42 435.465 / 435.565
GONETS M04 01 Aug 07:15:11 07:23:55 78° 281° (W) 07:32:40
STRAND 1 01 Aug 07:18:32 07:23:42 88° 68° (ENE) 07:28:53 437.568
BEESAT 2 01 Aug 07:27:42 07:30:39 19° 36° (NE) 07:33:38 435.950
RS-15 01 Aug 07:35:50 07:47:28 69° 241° (WSW) 07:59:28 29.354- 29.394
CUTE-I 01 Aug 07:54:31 07:59:52 81° 287° (WNW) 08:05:11 437.470
BRITE-PL 01 Aug 07:58:34 08:01:26 17° 91° (E) 08:04:34 437.365/2234.400
PRISM 01 Aug 08:01:47 08:05:41 37° 262° (W) 08:09:36 437.425
BEESAT 3 01 Aug 08:07:16 08:11:11 43° 47° (NE) 08:15:01 437.485
GOMX 1 01 Aug 08:10:19 08:12:42 14° 89° (E) 08:15:23 467.674
PCSat 01 Aug 08:17:47 08:18:29 10° 103° (ESE) 08:19:33 145.827
CUTE 1.7 + AOD 2 01 Aug 08:33:58 08:35:01 11° 86° (E) 08:36:18 437.475
Cubesat XI-IV 01 Aug 08:38:56 08:43:46 35° 294° (WNW) 08:48:33 437.490
CANX-2 01 Aug 08:41:11 08:43:36 15° 88° (E) 08:46:10 2200.000
HO-68 01 Aug 08:47:37 08:53:18 25° 91° (E) 08:59:09 435.675
M-CUBED/EXP-1 PRIME 01 Aug 08:55:26 08:59:13 36° 63° (ENE) 09:03:21 437.505
AO-7 01 Aug 08:57:17 08:59:11 11° 327° (NNW) 09:00:43 29.400- 29.500
AAUSAT CUBESAT 2 01 Aug 08:58:11 08:58:48 10° 85° (E) 08:59:41 437.432
Cosmos 2499 01 Aug 08:59:25 09:06:50 69° 283° (WNW) 09:14:56 435.465 / 435.565
AIST 2 01 Aug 08:59:43 09:03:29 31° 43° (NE) 09:07:13 435.215
STRAND 1 01 Aug 09:01:23 09:03:43 13° 274° (W) 09:05:47 437.568
BEESAT 2 01 Aug 09:05:04 09:09:09 70° 237° (WSW) 09:13:09 435.950
GONETS M04 01 Aug 09:16:37 09:22:35 19° 306° (NW) 09:28:11
AUBIESAT-1 01 Aug 09:24:31 09:28:34 62° 67° (ENE) 09:32:59 437.475
DOVE 4 01 Aug 09:35:21 09:39:53 62° 101° (E) 09:44:42 437.250
BRITE-PL 01 Aug 09:36:05 09:40:17 51° 287° (WNW) 09:44:45 437.365/2234.400
CUTE-I 01 Aug 09:36:31 09:39:12 14° 304° (NW) 09:41:40 437.470
CINEMA 3 01 Aug 09:45:03 09:49:23 37° 97° (E) 09:53:53 145.822/145.860
BEESAT 3 01 Aug 09:45:42 09:48:53 22° 245° (WSW) 09:51:57 437.485
GOMX 1 01 Aug 09:46:51 09:51:18 66° 285° (WNW) 09:56:01 467.674
COMPASS 1 01 Aug 09:49:27 09:53:31 43° 98° (E) 09:57:33 437.405
RS-15 01 Aug 09:50:52 09:58:04 17° 261° (W) 10:04:30 29.354- 29.394
UNISAT 6 01 Aug 09:53:21 09:56:49 24° 65° (ENE) 10:00:26 437.425
PCSat 01 Aug 09:55:41 10:01:04 72° 119° (ESE) 10:06:30 145.827
FUNcube-1 01 Aug 09:59:33 10:02:09 15° 88° (E) 10:04:56 145.935
UWE-3 01 Aug 10:01:04 10:04:31 21° 91° (E) 10:08:07 435.000/436.395/437.385
SO-50 01 Aug 10:03:12 10:07:53 60° 121° (ESE) 10:12:45 436.795
SEEDS 01 Aug 10:04:22 10:08:40 80° 102° (ESE) 10:12:55 437.485
CUTE 1.7 + AOD 2 01 Aug 10:07:14 10:11:34 78° 285° (WNW) 10:15:51 437.475
POPSAT HIP 1 01 Aug 10:07:24 10:09:21 13° 61° (ENE) 10:11:29 437.405
Oscar 11 01 Aug 10:11:35 10:15:25 30° 95° (E) 10:19:17 145.826/435.025
O/OREOS (USA 219) 01 Aug 10:12:16 10:14:48 15° 45° (NE) 10:17:29 437.305
QB50P2 01 Aug 10:14:24 10:16:56 16° 63° (ENE) 10:19:37 145.880/145.840
CANX-2 01 Aug 10:15:42 10:19:57 57° 287° (WNW) 10:24:09 2200.000
CUBEBUG 2 01 Aug 10:16:02 10:20:19 36° 96° (E) 10:24:42 437.445
DELFI C3 01 Aug 10:17:21 10:20:33 23° 93° (E) 10:23:49 145.870
HUMSAT D 01 Aug 10:25:36 10:26:56 11° 86° (E) 10:28:31 437.325/437.525
M-CUBED/EXP-1 PRIME 01 Aug 10:30:44 10:34:08 24° 263° (W) 10:37:43 437.505
AAUSAT CUBESAT 2 01 Aug 10:30:48 10:35:03 78° 285° (WNW) 10:39:14 437.432
HO-68 01 Aug 10:34:32 10:41:41 69° 291° (WNW) 10:48:49 435.675
TIGRISAT 01 Aug 10:35:42 10:39:58 59° 73° (ENE) 10:44:23 435.000
ANTELSAT 01 Aug 10:37:28 10:41:47 64° 73° (ENE) 10:46:14 437.575/2403.000
DUCHIFAT 1 01 Aug 10:37:55 10:41:20 25° 67° (ENE) 10:44:48 145.980
AIST 2 01 Aug 10:38:14 10:42:06 35° 242° (WSW) 10:45:51 435.215
QB50P1 01 Aug 10:41:03 10:44:36 28° 68° (ENE) 10:48:14 145.935-145.965
NANOSAT C BR1 01 Aug 10:42:14 10:45:48 28° 68° (ENE) 10:49:27 145.865
DX 1 01 Aug 10:42:58 10:44:17 11° 87° (E) 10:45:49 434.975-435.025
YUBILEINY 01 Aug 10:44:43 10:52:15 31° 64° (ENE) 10:59:57 435.215
Cosmos 2499 01 Aug 10:57:32 11:02:02 15° 309° (NW) 11:06:19 435.465 / 435.565
AUBIESAT-1 01 Aug 11:01:25 11:03:50 15° 268° (W) 11:06:11 437.475
ZACube-1 01 Aug 11:12:41 11:17:15 83° 103° (ESE) 11:21:51 437.345
DOVE 4 01 Aug 11:14:16 11:17:19 17° 296° (WNW) 11:20:19 437.250
CINEMA 3 01 Aug 11:22:30 11:26:28 28° 293° (WNW) 11:30:30 145.822/145.860
POLYITAN 1 01 Aug 11:23:28 11:27:39 79° 75° (ENE) 11:31:54 437.675
Cosmos 2491 01 Aug 11:24:00 11:30:01 22° 79° (E) 11:36:22 435.465 / 435.565
COMPASS 1 01 Aug 11:25:47 11:28:54 20° 295° (WNW) 11:31:55 437.405
UNISAT 6 01 Aug 11:29:20 11:33:25 38° 263° (W) 11:37:36 437.425
AIST 1 01 Aug 11:31:26 11:33:41 14° 86° (E) 11:36:07
FUNcube-1 01 Aug 11:34:26 11:38:55 62° 286° (WNW) 11:43:26 145.935
UWE-3 01 Aug 11:36:53 11:41:17 46° 288° (WNW) 11:45:42 435.000/436.395/437.385
POPSAT HIP 1 01 Aug 11:40:33 11:44:44 70° 258° (WSW) 11:48:56 437.405
PCSat 01 Aug 11:40:36 11:45:03 25° 320° (NW) 11:49:26 145.827
SEEDS 01 Aug 11:42:04 11:43:53 12° 299° (WNW) 11:45:30 437.485
BUGSAT 1 01 Aug 11:44:16 11:48:19 81° 76° (ENE) 11:52:22 437.445
SO-50 01 Aug 11:44:41 11:48:50 27° 323° (NW) 11:53:00 436.795
50 SAT 01 Aug 11:44:46 11:48:28 35° 97° (E) 11:52:08 437.505
Oscar 11 01 Aug 11:47:45 11:51:34 29° 292° (WNW) 11:55:18 145.826/435.025
QB50P2 01 Aug 11:48:19 11:52:27 56° 260° (W) 11:56:36 145.880/145.840
UKube-1 01 Aug 11:48:36 11:52:48 50° 100° (E) 11:57:00 .
O/OREOS (USA 219) 01 Aug 11:50:20 11:54:57 86° 246° (WSW) 11:59:32 437.305
DELFI C3 01 Aug 11:52:02 11:55:42 33° 291° (WNW) 11:59:20 145.870
AISAT 01 Aug 11:52:42 11:56:49 38° 97° (E) 12:00:57 437.250
CUBEBUG 2 01 Aug 11:52:58 11:56:53 28° 293° (WNW) 12:00:50 437.445
HUMSAT D 01 Aug 11:58:56 12:03:16 76° 285° (WNW) 12:07:35 437.325/437.525
CUBEBUG 1 01 Aug 12:06:43 12:10:32 30° 95° (E) 12:14:24 437.445
DUCHIFAT 1 01 Aug 12:13:14 12:17:01 32° 264° (W) 12:20:48 145.980
TIGRISAT 01 Aug 12:14:36 12:17:13 15° 272° (W) 12:19:42 435.000
ANTELSAT 01 Aug 12:16:42 12:19:07 14° 273° (W) 12:21:22 437.575/2403.000
QB50P1 01 Aug 12:16:44 12:20:26 29° 265° (W) 12:24:06 145.935-145.965
DX 1 01 Aug 12:16:48 12:21:10 76° 285° (WNW) 12:25:29 434.975-435.025
NANOSAT C BR1 01 Aug 12:17:56 12:21:36 28° 265° (W) 12:25:15 145.865
HO-68 01 Aug 12:23:58 12:28:19 17° 311° (NW) 12:32:24 435.675
Cosmos 2504 01 Aug 12:30:18 12:35:43 19° 57° (ENE) 12:41:38 435.465 / 435.565
VELOX 1 01 Aug 12:31:32 12:35:59 89° 266° (W) 12:40:23 145.980
YUBILEINY 01 Aug 12:41:08 12:49:53 68° 266° (W) 12:58:35 435.215
SPROUT 01 Aug 12:42:27 12:45:52 23° 93° (E) 12:49:22 437.525
ESTCUBE 1 01 Aug 12:43:40 12:48:12 87° 104° (ESE) 12:52:40 437.505/2401.250
ZACube-1 01 Aug 12:50:48 12:53:02 13° 299° (WNW) 12:55:05 437.345
TISAT 1 01 Aug 12:54:01 12:56:58 19° 91° (E) 13:00:02 437.305
ITAMSAT 1 01 Aug 12:55:09 12:56:34 11° 55° (NE) 12:58:15 435.822/435.867
POLYITAN 1 01 Aug 13:03:23 13:04:13 10° 274° (W) 13:04:47 437.675
AIST 1 01 Aug 13:06:37 13:10:55 56° 283° (WNW) 13:15:11
Oscar 19 01 Aug 13:08:57 13:13:46 44° 69° (ENE) 13:18:39 437.125/150
Cosmos 2491 01 Aug 13:17:06 13:25:54 86° 280° (W) 13:34:42 435.465 / 435.565
50 SAT 01 Aug 13:19:45 13:22:51 21° 294° (WNW) 13:25:51 437.505
UKube-1 01 Aug 13:25:33 13:28:37 19° 297° (WNW) 13:31:34 .
AISAT 01 Aug 13:29:38 13:33:14 24° 294° (WNW) 13:36:45 437.250
SO-50 01 Aug 13:30:16 13:31:05 10° 346° (NNW) 13:31:48 436.795
CUBEBUG 1 01 Aug 13:43:07 13:46:51 28° 293° (WNW) 13:50:31 437.445
JAS-2 01 Aug 13:44:31 13:48:33 18° 52° (NE) 13:53:07 435.910
SWISSCUBE 01 Aug 13:55:31 13:58:34 17° 89° (E) 14:01:46 437.505
Gurwin Techsat 1B 01 Aug 14:09:21 14:14:27 49° 70° (ENE) 14:19:36 435.225
VELOX 1 01 Aug 14:10:20 14:11:54 11° 301° (WNW) 14:13:16 145.980
ITUPSAT 1 01 Aug 14:16:02 14:19:54 24° 93° (E) 14:23:48 437.325
SPROUT 01 Aug 14:18:06 14:22:04 36° 290° (WNW) 14:26:00 437.525
AO-7 01 Aug 14:19:16 14:25:44 27° 51° (NE) 14:32:23 29.400- 29.500
Cosmos 2504 01 Aug 14:21:07 14:29:32 77° 80° (E) 14:38:11 435.465 / 435.565
ESTCUBE 1 01 Aug 14:22:32 14:24:26 12° 301° (WNW) 14:26:10 437.505/2401.250
TISAT 1 01 Aug 14:28:57 14:32:58 43° 289° (WNW) 14:36:58 437.305
ITAMSAT 1 01 Aug 14:30:03 14:35:13 67° 73° (ENE) 14:40:26 435.822/435.867
HORYU 2 01 Aug 14:33:15 14:34:07 11° 57° (ENE) 14:35:11 437.375
YUBILEINY 01 Aug 14:40:55 14:45:10 14° 286° (WNW) 14:48:50 435.215
DANDE 01 Aug 14:48:58 14:51:11 15° 71° (ENE) 14:53:54 436.750
Oscar 19 01 Aug 14:49:04 14:53:21 26° 267° (W) 14:57:33 437.125/150
CUSAT 1 01 Aug 15:06:07 15:09:53 40° 76° (ENE) 15:14:49 437.405
BEESAT 01 Aug 15:11:28 15:16:17 82° 106° (ESE) 15:21:03 436.000
Cosmos 2491 01 Aug 15:17:53 15:24:22 21° 304° (WNW) 15:30:29 435.465 / 435.565
JAS-2 01 Aug 15:26:19 15:32:29 80° 74° (ENE) 15:39:35 435.910
GONETS M04 01 Aug 15:27:34 15:31:42 14° 49° (NE) 15:36:20
SWISSCUBE 01 Aug 15:32:11 15:36:53 59° 288° (WNW) 15:41:34 437.505
STARS 01 Aug 15:32:36 15:35:10 15° 89° (E) 15:37:54 437.465
Gurwin Techsat 1B 01 Aug 15:50:23 15:54:44 24° 268° (W) 15:58:59 435.225
ITUPSAT 1 01 Aug 15:53:27 15:57:59 42° 291° (WNW) 16:02:27 437.325
KKS-1 01 Aug 15:58:57 16:03:15 45° 99° (E) 16:07:33 437.445
HORYU 2 01 Aug 16:05:35 16:10:02 80° 75° (ENE) 16:14:33 437.375
AO-7 01 Aug 16:09:18 16:17:42 87° 252° (WSW) 16:26:08 29.400- 29.500
ITAMSAT 1 01 Aug 16:11:47 16:15:18 17° 271° (W) 16:18:37 435.822/435.867
Cosmos 2504 01 Aug 16:14:25 16:21:02 26° 278° (W) 16:27:31 435.465 / 435.565
DANDE 01 Aug 16:30:49 16:34:18 42° 261° (W) 16:38:51 436.750
Cubesat XI-IV 01 Aug 16:47:10 16:49:13 13° 55° (NE) 16:51:31 437.490
CUSAT 1 01 Aug 16:49:08 16:52:23 21° 265° (W) 16:56:10 437.405
BEESAT 01 Aug 16:50:55 16:53:31 14° 301° (WNW) 16:55:58 436.000
MOZHAYETS 4 01 Aug 16:52:15 16:55:54 23° 92° (E) 16:59:37
SO-50 01 Aug 16:52:26 16:56:21 23° 34° (NE) 17:00:17 436.795
Cosmos 2499 01 Aug 16:55:57 16:59:24 13° 48° (NE) 17:03:27 435.465 / 435.565
PCSat 01 Aug 16:58:24 17:02:30 22° 37° (NE) 17:06:41 145.827
STARS 01 Aug 17:07:40 17:12:02 58° 288° (WNW) 17:16:22 437.465
JAS-2 01 Aug 17:14:13 17:18:41 19° 277° (W) 17:23:13 435.910
GONETS M04 01 Aug 17:22:19 17:30:56 61° 76° (ENE) 17:39:35
KKS-1 01 Aug 17:36:13 17:39:37 21° 296° (WNW) 17:42:56 437.445
CUTE-I 01 Aug 17:39:50 17:44:29 32° 65° (ENE) 17:49:13 437.470
HORYU 2 01 Aug 17:45:46 17:47:21 11° 274° (W) 17:48:42 437.375
AO-7 01 Aug 18:05:52 18:11:49 20° 273° (W) 18:17:23 29.400- 29.500
VERMONT LUNAR 01 Aug 18:19:53 18:20:32 10° 154° (SSE) 18:21:14 437.305
Cubesat XI-IV 01 Aug 18:23:08 18:28:29 72° 73° (ENE) 18:33:52 437.490
MOZHAYETS 4 01 Aug 18:28:57 18:33:20 41° 290° (WNW) 18:37:39
SO-50 01 Aug 18:32:30 18:37:29 79° 237° (WSW) 18:42:22 436.795
PCSat 01 Aug 18:41:12 18:46:40 86° 239° (WSW) 18:52:06 145.827
Cosmos 2499 01 Aug 18:46:34 18:55:04 54° 73° (ENE) 19:03:45 435.465 / 435.565
CUBESAT XI-V 01 Aug 18:47:06 18:51:09 30° 94° (E) 18:55:14 437.345
BRITE-PL 01 Aug 19:12:14 19:15:45 25° 68° (ENE) 19:19:14 437.365/2234.400
HO-68 01 Aug 19:19:27 19:25:06 27° 56° (ENE) 19:30:55 435.675
CUTE-I 01 Aug 19:19:28 19:24:29 39° 263° (W) 19:29:30 437.470
GONETS M04 01 Aug 19:19:51 19:27:21 33° 276° (W) 19:34:40
GOMX 1 01 Aug 19:21:28 19:24:21 19° 65° (ENE) 19:27:19 467.674
STRAND 1 01 Aug 19:27:11 19:31:17 24° 92° (E) 19:35:27 437.568
CUTE 1.7 + AOD 2 01 Aug 19:29:24 19:31:03 12° 61° (ENE) 19:32:53 437.475
CANX-2 01 Aug 19:36:50 19:39:23 16° 63° (ENE) 19:42:06 2200.000
PRISM 01 Aug 19:41:40 19:45:01 24° 94° (E) 19:48:23 437.425
AAUSAT CUBESAT 2 01 Aug 19:51:29 19:52:42 11° 60° (ENE) 19:54:07 437.432
VERMONT LUNAR 01 Aug 19:53:57 19:56:38 25° 169° (S) 19:59:20 437.305
RS-15 01 Aug 19:57:29 20:02:06 14° 97° (E) 20:07:39 29.354- 29.394
Cubesat XI-IV 01 Aug 20:05:43 20:09:14 17° 272° (W) 20:12:32 437.490
SO-50 01 Aug 20:15:36 20:17:18 11° 252° (WSW) 20:18:43 436.795
PHONESAT 2.4 01 Aug 20:16:52 20:18:33 13° 154° (SSE) 20:20:18 2401.200-2431.200
CUBESAT XI-V 01 Aug 20:24:30 20:28:36 31° 292° (WNW) 20:32:37 437.345
PCSat 01 Aug 20:26:43 20:29:22 13° 256° (WSW) 20:31:43 145.827
ZACube-1 01 Aug 20:38:46 20:39:31 11° 59° (ENE) 20:40:30 437.345
Cosmos 2499 01 Aug 20:40:07 20:48:04 40° 273° (W) 20:55:58 435.465 / 435.565
COMPASS 1 01 Aug 20:42:48 20:46:46 41° 71° (ENE) 20:50:47 437.405
DOVE 4 01 Aug 20:43:54 20:48:02 80° 76° (ENE) 20:52:13 437.250
CINEMA 3 01 Aug 20:49:39 20:53:33 41° 71° (ENE) 20:57:34 145.822/145.860
BRITE-PL 01 Aug 20:50:20 20:54:15 32° 264° (W) 20:58:01 437.365/2234.400
FUNcube-1 01 Aug 20:58:14 21:00:46 16° 62° (ENE) 21:03:29 145.935
GOMX 1 01 Aug 20:58:14 21:02:16 43° 262° (W) 21:06:15 467.674
SEEDS 01 Aug 20:58:24 21:02:38 76° 75° (ENE) 21:06:56 437.485
UWE-3 01 Aug 21:01:04 21:04:16 22° 65° (ENE) 21:07:38 435.000/436.395/437.385
CUTE 1.7 + AOD 2 01 Aug 21:02:06 21:06:23 81° 257° (WSW) 21:10:43 437.475
HO-68 01 Aug 21:05:09 21:12:17 73° 256° (WSW) 21:19:29 435.675
STRAND 1 01 Aug 21:05:50 21:10:45 46° 291° (WNW) 21:15:35 437.568
DELFI C3 01 Aug 21:07:05 21:10:05 21° 66° (ENE) 21:13:12 145.870
Oscar 11 01 Aug 21:08:42 21:12:32 32° 69° (ENE) 21:16:27 145.826/435.025
CANX-2 01 Aug 21:10:40 21:14:54 59° 260° (W) 21:19:10 2200.000
PRISM 01 Aug 21:16:48 21:20:31 32° 292° (WNW) 21:24:10 437.425
CUBEBUG 2 01 Aug 21:16:57 21:20:49 38° 70° (ENE) 21:24:51 437.445
HUMSAT D 01 Aug 21:20:14 21:21:46 12° 60° (ENE) 21:23:29 437.325/437.525
AAUSAT CUBESAT 2 01 Aug 21:23:29 21:27:42 86° 256° (WSW) 21:31:57 437.432
VERMONT LUNAR 01 Aug 21:30:08 21:32:57 28° 186° (S) 21:35:44 437.305
Cosmos 2491 01 Aug 21:30:11 21:33:30 13° 47° (NE) 21:37:21 435.465 / 435.565
ISS 01 Aug 21:36:18 21:39:19 36° 143° (SE) 21:42:22 145.825
DX 1 01 Aug 21:40:39 21:43:06 15° 62° (ENE) 21:45:43 434.975-435.025
PHONESAT 2.4 01 Aug 21:52:49 21:55:55 29° 170° (S) 21:59:00 2401.200-2431.200
VELOX 1 01 Aug 21:57:31 21:59:41 14° 61° (ENE) 22:02:01 145.980
RS-15 01 Aug 22:01:39 22:12:19 65° 118° (ESE) 22:23:27 29.354- 29.394
M-CUBED/EXP-1 PRIME 01 Aug 22:08:42 22:12:25 22° 96° (E) 22:16:10 437.505
ZACube-1 01 Aug 22:10:59 22:15:12 87° 78° (ENE) 22:19:32 437.345
ESTCUBE 1 01 Aug 22:11:22 22:13:39 14° 60° (ENE) 22:16:06 437.505/2401.250
COMPASS 1 01 Aug 22:19:27 22:22:38 20° 269° (W) 22:25:44 437.405
TIGRISAT 01 Aug 22:27:05 22:28:22 11° 85° (E) 22:29:56 435.000
CINEMA 3 01 Aug 22:27:58 22:31:01 19° 269° (W) 22:34:01 145.822/145.860
ANTELSAT 01 Aug 22:28:42 22:30:30 12° 86° (E) 22:32:33 437.575/2403.000
50 SAT 01 Aug 22:30:59 22:34:19 28° 69° (ENE) 22:37:45 437.505
FUNcube-1 01 Aug 22:32:32 22:36:40 57° 260° (W) 22:40:56 145.935
UWE-3 01 Aug 22:36:38 22:40:35 39° 263° (W) 22:44:39 435.000/436.395/437.385
AUBIESAT-1 01 Aug 22:37:05 22:41:27 35° 101° (E) 22:45:44 437.475
SEEDS 01 Aug 22:37:41 22:39:03 11° 274° (W) 22:40:10 437.485
DELFI C3 01 Aug 22:41:07 22:44:56 38° 263° (W) 22:48:47 145.870
Oscar 11 01 Aug 22:45:01 22:48:45 27° 266° (W) 22:52:27 145.826/435.025
UKube-1 01 Aug 22:45:32 22:49:47 59° 72° (ENE) 22:54:03 .
AISAT 01 Aug 22:52:41 22:56:53 46° 71° (ENE) 23:01:08 437.250
HUMSAT D 01 Aug 22:52:47 22:56:55 79° 257° (WSW) 23:01:10 437.325/437.525
CUBEBUG 2 01 Aug 22:54:27 22:57:43 21° 269° (W) 23:00:58 437.445
HO-68 01 Aug 22:57:59 23:01:29 13° 277° (W) 23:04:30 435.675
BEESAT 2 01 Aug 23:03:19 23:04:36 11° 110° (ESE) 23:06:06 435.950
CUBEBUG 1 01 Aug 23:05:08 23:09:05 35° 69° (ENE) 23:13:04 437.445
VERMONT LUNAR 01 Aug 23:07:17 23:09:08 14° 202° (SSW) 23:10:56 437.305
POLYITAN 1 01 Aug 23:08:43 23:09:46 11° 86° (E) 23:11:05 437.675
AIST 1 01 Aug 23:11:10 23:15:15 43° 76° (ENE) 23:19:19
ISS 01 Aug 23:12:33 23:15:43 46° 341° (NNW) 23:18:53 145.825
DX 1 01 Aug 23:14:37 23:18:55 64° 258° (WSW) 23:23:14 434.975-435.025
UNISAT 6 01 Aug 23:18:16 23:22:36 37° 96° (E) 23:27:00 437.425
POPSAT HIP 1 01 Aug 23:24:14 23:26:49 16° 90° (E) 23:29:34 437.405
Cosmos 2491 01 Aug 23:24:29 23:33:00 55° 74° (ENE) 23:41:32 435.465 / 435.565
PHONESAT 2.4 01 Aug 23:30:18 23:33:27 31° 187° (S) 23:36:35 2401.200-2431.200
VELOX 1 01 Aug 23:31:18 23:35:42 74° 256° (WSW) 23:40:08 145.980
QB50P2 01 Aug 23:31:41 23:34:48 20° 92° (E) 23:38:00 145.880/145.840
SPROUT 01 Aug 23:39:05 23:42:33 25° 67° (ENE) 23:46:06 437.525
BEESAT 3 01 Aug 23:39:33 23:43:14 34° 118° (ESE) 23:46:58 437.485
M-CUBED/EXP-1 PRIME 01 Aug 23:42:45 23:47:26 50° 295° (WNW) 23:51:59 437.505
ESTCUBE 1 01 Aug 23:45:26 23:49:59 77° 257° (WSW) 23:54:33 437.505/2401.250
TISAT 1 01 Aug 23:48:42 23:51:45 20° 65° (ENE) 23:54:53 437.305
YUBILEINY 01 Aug 23:49:48 23:56:58 31° 83° (E) 00:04:24 435.215
DUCHIFAT 1 01 Aug 23:55:00 23:58:47 31° 96° (E) 00:02:37 145.980
QB50P1 01 Aug 23:58:42 00:02:38 36° 97° (E) 00:06:36 145.935-145.965
NANOSAT C BR1 01 Aug 23:59:39 00:03:35 36° 97° (E) 00:07:32 145.865
TIGRISAT 02 Aug 00:01:07 00:05:50 88° 290° (WNW) 00:10:33 435.000
ANTELSAT 02 Aug 00:03:13 00:07:57 82° 283° (WNW) 00:12:41 437.575/2403.000
50 SAT 02 Aug 00:05:38 00:08:54 25° 266° (W) 00:12:10 437.505
AUBIESAT-1 02 Aug 00:11:50 00:16:03 32° 299° (WNW) 00:20:10 437.475
RS-15 02 Aug 00:14:42 00:25:19 49° 324° (NW) 00:36:21 29.354- 29.394
UKube-1 02 Aug 00:23:48 00:26:21 15° 271° (W) 00:28:43 .
AISAT 02 Aug 00:30:32 00:33:44 19° 269° (W) 00:36:50 437.250
BEESAT 2 02 Aug 00:37:59 00:42:06 82° 306° (NW) 00:46:16 435.950
AIST 2 02 Aug 00:38:20 00:41:51 26° 116° (ESE) 00:45:27 435.215
CUBEBUG 1 02 Aug 00:41:56 00:45:33 24° 267° (W) 00:49:05 437.445
POLYITAN 1 02 Aug 00:42:00 00:46:18 77° 285° (WNW) 00:50:35 437.675
BEESAT 02 Aug 00:44:38 00:47:40 17° 61° (ENE) 00:50:51 436.000
AIST 1 02 Aug 00:49:40 00:52:36 18° 273° (W) 00:55:23
ISS 02 Aug 00:49:43 00:52:37 29° 1° (N) 00:55:32 145.825
UNISAT 6 02 Aug 00:55:16 00:59:15 28° 294° (WNW) 01:03:12 437.425
POPSAT HIP 1 02 Aug 00:58:54 01:03:03 52° 288° (WNW) 01:07:12 437.405
BUGSAT 1 02 Aug 00:59:08 01:03:13 81° 285° (WNW) 01:07:19 437.445
SWISSCUBE 02 Aug 01:04:10 01:08:09 27° 65° (ENE) 01:12:13 437.505
QB50P2 02 Aug 01:06:51 01:10:54 42° 289° (WNW) 01:14:55 145.880/145.840
PHONESAT 2.4 02 Aug 01:08:40 01:10:51 16° 203° (SSW) 01:12:59 2401.200-2431.200
SPROUT 02 Aug 01:14:37 01:18:31 34° 264° (W) 01:22:25 437.525
BEESAT 3 02 Aug 01:17:31 01:21:11 31° 317° (NW) 01:24:51 437.485
Oscar 19 02 Aug 01:19:43 01:21:47 13° 85° (E) 01:24:09 437.125/150
Cosmos 2491 02 Aug 01:21:51 01:29:36 36° 275° (W) 01:37:10 435.465 / 435.565
TISAT 1 02 Aug 01:23:18 01:27:16 41° 262° (W) 01:31:15 437.305
ITUPSAT 1 02 Aug 01:25:02 01:29:26 37° 68° (ENE) 01:33:53 437.325
DUCHIFAT 1 02 Aug 01:30:55 01:34:30 26° 293° (WNW) 01:38:02 145.980
QB50P1 02 Aug 01:34:54 01:38:21 24° 294° (WNW) 01:41:44 145.935-145.965
NANOSAT C BR1 02 Aug 01:35:49 01:39:15 24° 294° (WNW) 01:42:37 145.865
TIGRISAT 02 Aug 01:39:52 01:41:56 13° 301° (WNW) 01:43:49 435.000
ANTELSAT 02 Aug 01:42:17 01:44:02 12° 301° (WNW) 01:45:34 437.575/2403.000
YUBILEINY 02 Aug 01:44:38 01:53:17 64° 284° (WNW) 02:02:00 435.215
O/OREOS (USA 219) 02 Aug 02:04:53 02:09:19 69° 112° (ESE) 02:13:50 437.305
AIST 2 02 Aug 02:16:13 02:20:16 41° 313° (NW) 02:24:19 435.215
BEESAT 2 02 Aug 02:18:17 02:20:49 15° 327° (NNW) 02:23:18 435.950
BEESAT 02 Aug 02:20:16 02:25:03 67° 258° (WSW) 02:29:51 436.000
Gurwin Techsat 1B 02 Aug 02:24:12 02:27:18 16° 87° (E) 02:30:37 435.225
ISS 02 Aug 02:26:17 02:29:30 52° 21° (NNE) 02:32:42 145.825
RS-15 02 Aug 02:31:42 02:41:17 30° 357° (N) 02:51:14 29.354- 29.394
STARS 02 Aug 02:31:52 02:34:58 20° 63° (ENE) 02:38:10 437.465
JAS-2 02 Aug 02:35:05 02:38:18 13° 79° (E) 02:42:04 435.910
ITAMSAT 1 02 Aug 02:41:19 02:44:56 19° 90° (E) 02:48:42 435.822/435.867
SWISSCUBE 02 Aug 02:41:22 02:45:52 39° 263° (W) 02:50:23 437.505
Cosmos 2504 02 Aug 02:54:43 03:01:35 53° 90° (E) 03:09:02 435.465 / 435.565
Oscar 19 02 Aug 02:56:45 03:01:58 89° 288° (WNW) 03:07:11 437.125/150
KKS-1 02 Aug 02:59:20 03:03:39 56° 72° (ENE) 03:08:02 437.445
ITUPSAT 1 02 Aug 03:03:16 03:07:25 28° 266° (W) 03:11:32 437.325
O/OREOS (USA 219) 02 Aug 03:46:17 03:49:18 17° 312° (NW) 03:52:14 437.305
YUBILEINY 02 Aug 03:47:28 03:52:25 15° 310° (NW) 03:56:56 435.215
HORYU 2 02 Aug 03:56:04 03:58:03 13° 87° (E) 04:00:14 437.375
MOZHAYETS 4 02 Aug 03:56:27 04:00:26 30° 67° (ENE) 04:04:30
AIST 2 02 Aug 03:59:03 04:00:00 11° 336° (NNW) 04:00:49 435.215
Gurwin Techsat 1B 02 Aug 04:02:38 04:07:58 75° 287° (WNW) 04:13:16 435.225
ISS 02 Aug 04:02:55 04:05:49 29° 219° (SW) 04:08:43 145.825
STARS 02 Aug 04:06:53 04:11:07 48° 261° (W) 04:15:22 437.465
